Flag for Belize Weather past 2 weeks in Belize City, Belize

Now
90 °F

Passing clouds.


Feels Like: 103 °F
Forecast: N/A
Wind: 10 mph from East

Location: Belize / Phillip Goldston Intl. Airport

Current Time: Aug 2, 2015 at 3:14:53 PM

Latest Report: Aug 2, 2015 at 2:00 PM


Visibility: N/A

Pressure: 29.88 "Hg

Humidity: 67%

Dew point: 77 °F

Location of Belize CityLocation

Historic Weather in Belize City — Graph

°F

Belize City temperature yesterday

Maximum temperature yesterday: 90 °F (at 12:00 PM)
Minimum temperature yesterday: 81 °F (at 5:00 AM)
Average temperature yesterday: 85 °F

Past Weeks' High & Low Weather Summary

 TemperatureHumidityPressure
High90 °F (Jul 21, 1:00 PM)94% (Jul 20, 5:00 AM)32.52 "Hg (Jul 20, 5:00 AM)
Low77 °F (Jul 20, 5:00 AM)62% (Jul 20, 1:00 PM)29.88 "Hg (Aug 2, 5:00 AM)
Average86 °F76%29.97 "Hg
* Reported Jul 18 2:00 PM — Aug 2 2:00 PM, Belize City, Weather by CustomWeather, © 2015

Note: Actual official high and low records may vary slightly from our data, if they occured in-between our weather recording intervals... More about our weather records

Advertising

Belize City weather history for previous 24 hours

 ConditionsComfort  
Time TempWeatherWind HumidityBarometerVisibility
2:00 PM
Sun, Aug 2
90 °FPassing clouds.10 mph67%29.88 "HgN/A
1:00 PM90 °FPassing clouds.6 mph67%29.90 "HgN/A
12:00 PM90 °FPassing clouds.8 mph67%29.90 "HgN/A
11:00 AM90 °FPassing clouds.7 mph67%29.92 "HgN/A
10:00 AM88 °FPassing clouds.8 mph70%29.93 "HgN/A
9:00 AM86 °FScattered clouds.7 mph79%29.93 "HgN/A
8:00 AM86 °FPassing clouds.7 mph75%29.92 "HgN/A
7:00 AM84 °FPassing clouds.6 mph74%29.91 "HgN/A
6:00 AM81 °FPassing clouds.3 mph84%29.89 "HgN/A
5:00 AM81 °FPassing clouds.5 mph84%29.88 "HgN/A
9:00 PM
Sat, Aug 1
82 °FPassing clouds.5 mph79%29.93 "HgN/A
8:00 PM82 °FPassing clouds.9 mph84%29.91 "HgN/A
7:00 PM84 °FScattered showers. Partly cloudy.12 mph74%29.91 "HgN/A
6:00 PM84 °FPartly sunny.12 mph74%29.90 "HgN/A
5:00 PM86 °FPartly sunny.12 mph75%29.89 "HgN/A
4:00 PM88 °FScattered clouds.12 mph70%29.89 "HgN/A
3:00 PM88 °FPartly sunny.9 mph70%29.89 "HgN/A
Weather by CustomWeather, © 2015

See weather overviewHow to use our weather pages